Hourly Data Report for August 01, 2002

SHERBROOKE A
QUEBEC

45°26'00.000" N
71°41'00.000" W
241.40 m
7028124
71610
YSC

Download Data

Hourly Data (August 2002)
Hourly Data Report for August 1, 2002
TIME
LST
Temp Definition
°C
Dew Point Definition
°C
Rel Hum Definition
%
Precip. Amount Definition
mm

Wind Dir Definition
10's deg

Wind Spd Definition
km/h
Visibility Definition
km
Stn Press Definition
kPa
Hmdx Definition


Wind Chill Definition


Weather Definition


00:00 18.0 17.3 96     0 9.7 98.36      
01:00 17.9 17.1 95   10 4 9.7 98.39      
02:00 16.8 16.2 96     0 8.0 98.39      
03:00 16.9 16.3 96   10 7 9.7 98.41      
04:00 16.5 16.1 97   3 4 4.0 98.47      
05:00 16.8 16.2 96   15 6 4.8 98.51      
06:00 18.7 17.5 93   12 4 8.0 98.53      
07:00 21.5 19.2 87   7 6 24.1 98.55 28   Mainly Clear
08:00 22.8 19.2 80     0 24.1 98.55 30   Mainly Clear
09:00 25.4 20.9 76   30 4 24.1 98.55 34   Mainly Clear
10:00 27.1 19.2 62     0 24.1 98.54 34   Mainly Clear
11:00 28.0 17.0 51   7 7 24.1 98.54 33   Mostly Cloudy
12:00 27.6 16.4 50     0 24.1 98.49 32   Mostly Cloudy
13:00 28.7 18.9 55   3 6 24.1 98.45 35   Mainly Clear
14:00 28.6 17.0 49     0 24.1 98.44 34   Mainly Clear
15:00 28.9 18.1 52   9 4 24.1 98.42 35   Mainly Clear
16:00 26.6 19.2 64   1 4 24.1 98.42 34   Mostly Cloudy
17:00 27.7 18.9 59   4 6 15.0 98.43 34    
18:00 27.0 18.6 60   5 4 15.0 98.42 33    
19:00 23.3 20.0 82   1 4 15.0 98.48 31    
20:00 20.4 18.7 90     0 15.0 98.53 27    
21:00 18.8 17.6 93     0 15.0 98.51      
22:00 18.7 17.4 92   9 4 15.0 98.54      
23:00 18.7 18.0 96   10 4 15.0 98.53      

Notes on Data Quality.

Legend

  • E = Estimated
  • M = Missing
  • NA = Not Available*
  • [empty] = Indicates an unobserved value
Date modified: